TimeEST,TemperatureF,Dew PointF,Humidity,Sea Level PressureIn,VisibilityMPH,Wind Direction,Wind SpeedMPH,Gust SpeedMPH,PrecipitationIn,Events,Conditions,WindDirDegrees,DateUTC
12:54 AM,33.1,30.9,92,29.99,10.0,NNW,6.9,-,N/A,,Overcast,340,2013-02-03 05:54:00
1:54 AM,35.1,28.9,78,29.97,10.0,NNW,5.8,-,N/A,,Overcast,340,2013-02-03 06:54:00
2:54 AM,34.0,28.9,82,29.97,10.0,WNW,5.8,-,N/A,,Overcast,300,2013-02-03 07:54:00
3:54 AM,34.0,21.9,61,29.95,10.0,NW,11.5,-,N/A,,Clear,320,2013-02-03 08:54:00
4:54 AM,32.0,21.9,66,29.96,10.0,North,4.6,-,N/A,,Scattered Clouds,10,2013-02-03 09:54:00
5:54 AM,32.0,21.9,66,29.97,10.0,Calm,Calm,-,N/A,,Mostly Cloudy,0,2013-02-03 10:54:00
6:54 AM,30.9,23.0,72,29.96,10.0,Calm,Calm,-,N/A,,Mostly Cloudy,0,2013-02-03 11:54:00
7:54 AM,32.0,23.0,69,29.95,10.0,NE,3.5,-,N/A,,Mostly Cloudy,50,2013-02-03 12:54:00
8:54 AM,33.1,25.0,72,29.96,10.0,Calm,Calm,-,N/A,,Overcast,0,2013-02-03 13:54:00
9:41 AM,33.8,28.4,81,29.93,1.8,North,3.5,-,0.00,Snow,Light Snow,10,2013-02-03 14:41:00
9:50 AM,35.6,30.2,81,29.93,2.5,North,3.5,-,0.01,Snow,Light Snow,360,2013-02-03 14:50:00
9:54 AM,35.1,30.0,82,29.96,5.0,North,3.5,-,0.01,Snow,Light Snow,360,2013-02-03 14:54:00
10:36 AM,37.4,30.2,75,29.93,2.5,Calm,Calm,-,0.00,Snow,Light Snow,0,2013-02-03 15:36:00
10:42 AM,37.4,32.0,81,29.93,3.0,North,4.6,-,0.00,Snow,Light Snow,360,2013-02-03 15:42:00
10:54 AM,39.0,33.1,79,29.94,9.0,NNW,4.6,-,0.00,,Overcast,340,2013-02-03 15:54:00
11:54 AM,43.0,30.0,60,29.91,10.0,North,8.1,-,N/A,,Overcast,350,2013-02-03 16:54:00
12:54 PM,45.0,28.9,53,29.89,10.0,North,15.0,21.9,N/A,,Partly Cloudy,350,2013-02-03 17:54:00
1:54 PM,46.0,19.0,34,29.86,10.0,NW,18.4,28.8,N/A,,Clear,310,2013-02-03 18:54:00
2:54 PM,46.0,21.0,37,29.88,10.0,NNW,11.5,24.2,N/A,,Partly Cloudy,330,2013-02-03 19:54:00
3:54 PM,43.0,19.9,40,29.91,10.0,North,21.9,29.9,N/A,,Mostly Cloudy,350,2013-02-03 20:54:00
4:54 PM,41.0,21.9,47,29.95,10.0,NNW,17.3,29.9,N/A,,Mostly Cloudy,340,2013-02-03 21:54:00
5:54 PM,37.9,21.0,51,29.97,10.0,NNW,12.7,21.9,N/A,,Partly Cloudy,330,2013-02-03 22:54:00
6:54 PM,36.0,21.0,55,29.98,10.0,NNW,10.4,-,N/A,,Clear,330,2013-02-03 23:54:00
7:54 PM,36.0,23.0,59,30.00,10.0,North,6.9,18.4,N/A,,Clear,360,2013-02-04 00:54:00
8:54 PM,34.0,19.9,56,30.02,10.0,North,8.1,-,N/A,,Scattered Clouds,350,2013-02-04 01:54:00
9:54 PM,30.9,21.0,67,30.03,10.0,North,13.8,21.9,N/A,,Clear,350,2013-02-04 02:54:00
10:54 PM,28.9,19.9,69,30.03,10.0,NNW,17.3,28.8,N/A,,Clear,340,2013-02-04 03:54:00
11:54 PM,28.9,19.0,67,30.03,10.0,North,20.7,28.8,N/A,,Clear,350,2013-02-04 04:54:00